Погода в Красной Горке

Россия / Пензенская область     52°33′41″N   44°31′17″E
темп.,
°C
ветер,
м/с
пор.,
м/с
влажн.,
%
обл.,
%
осадки,
мм/ч
давл.,
гПа
погр.,
м
6 марта, сб
сб600:00−10зсз339238 0.0 101421
03:00−11зсз229261 0.0 101621
06:00−12з119587 0.0 101621
09:00−9ссз119493 0.0 101735
12:00−6ссв0090100 0.0 1016217
15:00−5всв1189100 0.0 1014272
18:00−9св1195100 0.0 101421
21:00−9всв1196100 0.3 101421
7 марта, вс
вс700:00−9с3396100 0.4 101475
03:00−12сз339595 0.6 101433
06:00−15з349767 0.0 101540
09:00−12зюз589554 0.0 1015255
12:00−8юз7118871 0.0 1013606
15:00−5юз8148285 0.0 1009945
18:00−4юз91780100 0.0 10051112
21:00−4юз112086100 0.3 10021123
8 марта, пн
пн800:00−3зюз101694100 0.7 10011032
03:00−8з4787100 0.9 1002132
06:00−12юз48858 0.0 1002107
09:00−7юз714848 0.0 1002477
12:00−3зюз10168895 0.1 10021535
15:00−5з8137592 0.4 1003966
18:00−10з48905 0.0 1005142
21:00−13з479610 0.0 1008116
9 марта, вт
вт900:00−14з479723 0.0 1009119
03:00−15з479850 0.0 1010113
06:00−16з3499100 0.0 101258
09:00−14зсз3496100 0.1 1013178
12:00−10зсз348998 0.0 1014404
15:00−10сз348999 0.0 1015459
18:00−13зсз3495100 0.0 101574
21:00−15сз3396100 0.0 101740
10 марта, ср
ср1000:00−16ссз3697100 0.1 1018115
03:00−20сз349982 0.1 101955
06:00−23сз479834 0.0 102191
09:00−22сз479623 0.0 1022260
12:00−18сз469069 0.0 1023457
15:00−18сз478982 0.0 1023524
18:00−22сз349688 0.0 102430
21:00−23сз239964 0.0 102620